Key statistics
Satellite CZ-6A DEB at a glance.
Uptime
308
Days in orbit
Revolutions
≈ 16.3
Per day
Orbit
LEO
Low Earth Orbit
Inclination
89.2
Latest
Satellite identification and parameters
Extended collection of information and parameters for CZ-6A DEB.
Object identification
Identified? True
Debris? True
Object name: CZ-6A DEB
International designator: 2024-140AE
Object number (NORAD): 60629
Object ID (CCSDS): 60629
Country: PEOPLES REPUBLIC OF CHINA (PRC)
Current information (Y/N): Y
RCS size: MEDIUM
Orbital parameters
Decay date: June 10, 2025
Period: 88.236 minutes
Inclination: 89.2161 deg
SMA: 6565.343 km
Apoapsis: 195.448 km
Periapsis: 178.968 km
RAAN: 321.9835 deg
Eccentricy: 0.0012551
Argument of periapsis: 341.3087 deg
Mean anomaly: 18.7756 deg
Mean motion: 16.31986856 rev/day
Mean motion (dot): 0.15617401 rev/day2
B* drag term: 0.002928 1/REarth
Two-line elements (TLE)
Creation date: June 8, 2025, 4:18 a.m.
Reference frame: TEME
Reference center: EARTH
Epoch: June 5, 2025, 8:15 a.m. UTC
TLE line 0: 0 CZ-6A DEB
TLE line 1: 1 60629U 24140AE 25156.34434215 .15617401 -11259-5 29280-2 0 9991
TLE line 2: 2 60629 89.2161 321.9835 0012551 341.3087 18.7756 16.31986856 45515
Live tracking on map
Satellite CZ-6A DEB has decayed and is no longer in orbit. No tracking available.
In-orbit conjunctions
Satellite CZ-6A DEB has decayed and is no longer in orbit. No conjunctions available.
Associated space launch
18 Low Earth Orbit communication satellites with Ku, Q and V band payloads for the G60 constellation operated by Shanghai Spacecom Satellite Technology (SSST) with funding backed by the Shanghai local government. Initial constellation will consist of 1296 satellites by 2027 with long term plans to expand it to 12000 satellites.
CZ-6A DEB was lifted into orbit during the mission ‘Long March 6A | G60 Polar Group 01’, on board a Long March 6A space rocket.
The launch took place on Aug. 6, 2024, 6:42 a.m. from Launch Complex 9A.
For more information about the launch, click the button.
Long March 6A | G60 Polar Group 01
Agency: N/A
Status: Launch Successful
Launch date: Aug. 6, 2024, 6:42 a.m. UTC
Rocket: Long March 6A
Launch pad: Launch Complex 9A
Location: Taiyuan Satellite Launch Center, People's Republic of China
...
Latest news about this satellite
Brightness of first Chinese broadband constellation satellites alarms astronomers
The first satellites of a Chinese broadband constellation are significantly brighter than those of Western systems, posing a new challenge for astronomers.
Chinese rocket stage breaks up into cloud of more than 700 pieces of space debris
HELSINKI — A Chinese Long March 6A rocket’s upper stage has fragmented into a cloud of over 700 pieces of space debris, adding to concerns about long-term orbital safety. China […]
China's Thousand Sails Megaconstellation Kicks Off with Dangerous Debris Field
China's Thousand Sails Megaconstellation Kicks Off with Dangerous Debris Field
Newsletter sign-up
Weekly statistics, charts and insights to help you stay on top of the space industry.
